Regional Weather Roundup
Issued by NWS

Home | Current Version | Previous Version | Graphics & Text | Print | Product List | Glossary On
Versions: 1 2 3 4 5 6 7 8 9 10 11 12 13 14 15 16 17 18 19 20 21 22 23 24 25 26 27 28 29 30 31 32 33 34 35 36 37 38 39 40 41 42 43 44 45 46 47 48 49 50
000
ASUS43 KMKX 270524
RWRWI

WISCONSIN REGIONAL WEATHER ROUNDUP
NATIONAL WEATHER SERVICE MILWAUKEE/SULLIVAN WI
1200 AM CDT WED MAY 27 2015

NOTE: "FAIR" INDICATES FEW OR NO CLOUDS BELOW 12,000 FEET WITH NO
SIGNIFICANT WEATHER AND/OR OBSTRUCTIONS TO VISIBILITY.

WIZ001-002-006>008-014>016-023>028-270600-
NORTHWEST WISCONSIN

CITY           SKY/WX    TMP DP  RH WIND       PRES   REMARKS
SUPERIOR ARPT  CLOUDY    51  51  98 CALM      29.79S
ASHLAND        LGT RAIN  52  52 100 CALM      29.78S FOG
HAYWARD        LGT RAIN  54  52  93 CALM      29.79R
SIREN          CLOUDY    55  53  95 CALM      29.80S
CUMBERLAND     RAIN      54  52  94 NW7       29.80R
RICE LAKE      DRIZZLE   55  54  94 W5        29.81R
CHETEK         DRIZZLE   55  55  99 W5        29.79R
LADYSMITH      DRIZZLE   55  54  97 NW8       29.77R
EAU CLAIRE     CLOUDY    57  55  93 NW8       29.77R
MENOMONIE      DRIZZLE   57  57 100 W3        29.80R
NEW RICHMOND   CLOUDY    55  55 100 CALM      29.81S
OSCEOLA        DRIZZLE   56  56 100 CALM      29.83S
$$

WIZ003>005-009-010-017-018-270600-
NORTH CENTRAL WISCONSIN

CITY           SKY/WX    TMP DP  RH WIND       PRES   REMARKS
MANITOWISH WTR DRIZZLE   52  52 100 NW8       29.71S
ARBOR VITAE    CLOUDY    57  55  95 N9        29.69F
WOODRUFF       CLOUDY    57  55  95 N9        29.69F
RHINELANDER    LGT RAIN  58  57  97 VRB6      29.67S FOG
EAGLE RIVER    DRIZZLE   57  56  99 N9        29.67S
LAND O LAKES   RAIN      56  55  99 N9        29.70S
PHILLIPS       RAIN      52  52 100 NW8       29.73R
TOMAHAWK       DRIZZLE   57  56  95 NW9       29.69R
MEDFORD        DRIZZLE   56  55  97 NW9       29.72R
MERRILL        RAIN      60  60 100 NW9       29.67R
$$

WIZ029-030-035-036-043>047-270600-
CENTRAL WISCONSIN

CITY           SKY/WX    TMP DP  RH WIND       PRES   REMARKS
WAUSAU         HVY RAIN  61  60  97 W14       29.66R FOG
MOSINEE        RAIN      59  59 100 NW17G23   29.66R
MARSHFIELD     LGT RAIN  59  56  89 NW13G21   29.71R
STEVENS POINT  HVY RAIN  60  59  99 NW13G20   29.64R
WAUPACA        CLOUDY    63  62  97 SW16G22   29.64S FOG
WAUTOMA        CLOUDY    63  61  93 SW17G24   29.70R
WISC RAPIDS    CLOUDY    60  57  89 W13       29.70R
CAMP DOUGLAS   MOCLDY   N/A N/A N/A W13       29.75R
$$

WIZ011>013-019>022-031-037>040-048>050-270600-
NORTHEAST WISCONSIN

CITY           SKY/WX    TMP DP  RH WIND       PRES   REMARKS
ANTIGO         CLOUDY    59  59  99 N8        29.64S
SHAWANO        CLOUDY    63  61  93 SW7       29.63S
OCONTO         MOCLDY    63  61  94 SW9G18    29.62R
STURGEON BAY   PTCLDY    61  55  82 SW12      29.65F
GREEN BAY      CLOUDY    64  59  83 SW13G22   29.65S
MANITOWOC      CLOUDY    65  58  78 SW18G26   29.69S
APPLETON       CLOUDY    61  57  88 SW23G30   29.67S
CLINTONVILLE   CLOUDY    61  59  94 SW13      29.63S
OSHKOSH        CLOUDY    64  57  78 SW14G25   29.70R
$$

WIZ032>034-041-042-053>061-270600-
SOUTHWEST WISCONSIN

CITY           SKY/WX    TMP DP  RH WIND       PRES   REMARKS
LA CROSSE      LGT RAIN  62  58  86 W6        29.78R
SPARTA         CLOUDY    60  58  95 W6        29.78R
VIROQUA        MOCLDY    58  58 100 W7        29.79S
BOSCOBEL       MOCLDY    60  57  89 CALM      29.81R
PRAIRIE DU CHI MOCLDY    60  58  91 SW6       29.81R
PLATTEVILLE    CLEAR     59  58  97 W6        29.83R
$$

WIZ056-057-062-063-064-067-068-270600-
SOUTH CENTRAL WISCONSIN

CITY           SKY/WX    TMP DP  RH WIND       PRES   REMARKS
REEDSBURG      PTCLDY    60  58  91 W8        29.77R
BARABOO/DELLS  PTCLDY    60  56  85 SW10      29.77R
LONE ROCK      CLEAR     61  58  90 W5        29.80R
MINERAL POINT  CLEAR     61  59  94 SW8       29.82R
MADISON        CLEAR     62  57  83 SW7       29.79R
MIDDLETON      CLEAR     62  59  89 SW6       29.80R
WATERTOWN      CLEAR    N/A N/A N/A SW10G17   29.79R
MONROE         MOCLDY    61  59  94 SW10      29.82S
JANESVILLE     CLOUDY    64  61  88 W8        29.81S
$$

WIZ051-052-058>065-066-070>072-270600-
SOUTHEAST WISCONSIN

CITY           SKY/WX    TMP DP  RH WIND       PRES   REMARKS
MILWAUKEE      PTCLDY    64  58  80 SW12      29.79S
WAUKESHA       PTCLDY    61  55  82 SW10      29.81R
MILWAUKEE/TIMM CLEAR     64  55  72 SW13      29.79S
RACINE         MOCLDY    66  59  78 SW13      29.82S
BURLINGTON     MOCLDY    62  59  91 SW7       29.81F
KENOSHA        CLOUDY    67  61  81 SW10      29.82S
FOND DU LAC    CLOUDY    63  57  81 SW16G26   29.73R
SHEBOYGAN      CLEAR     63  57  81 SW21G35   29.72R
WEST BEND      CLEAR     63  55  77 SW14G22   29.76S
JUNEAU         CLEAR     61  57  88 SW15      29.78R
$$

LSZ147-162-270600-
LAKE SUPERIOR

STATION/POSITION TIME  TEMP    WIND        PRES    WAVE
                       AIR SEA DIR/SP/G            HT/PER
                 (UTC) (F)     (DEG/KT/KT) (MB)    (FT/S)
W MID LAKE BUOY  0450   43 37   40/  6/  8 1080.0R   0
DEVILS ISLAND    0500   48     260/ 10/ 10 1086.0S
PORT WING        0440   50     290/  6/  7   N/A
SAXON HARBOR     0440   48        CALM     1081.0S
$$

LMZ867-665-643>646-270600-
LAKE MICHIGAN

STATION/POSITION TIME  TEMP    WIND        PRES    WAVE
                       AIR SEA DIR/SP/G            HT/PER
                 (UTC) (F)     (DEG/KT/KT) (MB)    (FT/S)
CHAMBERS ISLAND  0400   55     130/  4/  6 1041.0S
N MID LAKE BUOY  0450   44 37  190/ 16/ 16 1044.0F   2/ 3
NORTHPORT PIER   0400   48     160/ 10/ 13 1044.0F
SISTER BAY       0403   49     160/  9/ 14   N/A
KEWAUNEE LAKESHO 0400   49     190/  9/ 11 1039.0S
SHEBOYGAN LAKESH 0500   65     220/ 20/ 23 1067.0R
PORT WASHINGTON  0400   66     230/ 10/ 20 1081.0R
ATWATER BUOY     0400   64 45  220/ 14/ 16   N/A
MILWAUKEE LAKESH 0400   67     240/ 16/ 20   N/A
S MID LAKE BUOY  0450   47 38  190/ 14/ 16   N/A     2/ 4
KENOSHA   LAKESH 0500   67     210/  7/ 15   N/A
$$

TC  - TEMPERATURE IN CELSIUS
VSB - VISIBILITY IN STATUTE MILES
WCI - WIND CHILL INDEX
HX  - HEAT INDEX



USA.gov is the U.S. government's official web portal to all federal, state and local government web resources and services.